Location: Unnamed
(47.6264°N, 122.3366°W)
Time: 16:28:14
(UTC-08:00)

XW-2D - Pass Details

Date: 07 December 2023
Orbit: 440 x 449 km, 97.5° (Epoch: 02 March)

Event Time Altitude Azimuth Distance (km) Brightness Sun altitude
Rises 06:20:02 0° 21° (NNE) 2,550 ? -13.4°
Reaches altitude 10° 06:22:17 10° 32° (NNE) 1,662 ? -13.0°
Maximum altitude 06:25:30 31° 97° (E) 859 ? -12.5°
Drops below altitude 10° 06:28:40 10° 161° (SSE) 1,636 ? -12.0°
Sets 06:30:51 0° 172° (S) 2,501 ? -11.7°
